LDE505 SAVC-SAZB

Flight info

Callsign LDE505
Flight time N/A
Altitude 33000
Route GATUD2G GATUD UP664 TRE UT693 LOMUS DCT SANBU SANBU2Q
Aircraft B737/M-SDE2E3FGHIRWXY/LB1

Departure

Time 2026-05-07 22:52
Airport General Enrique Mosconi International Airport (SAVC)

Arrival

Time N/A
Airport Comandante Espora Airport (SAZB)
Time Latitude Longitude Altitude Speed Heading
2026-05-07 21:52 -45.78951 -67.46824 195 ft 0 kts 220°
2026-05-07 22:43 -45.78945 -67.46816 195 ft 4 kts 214°
2026-05-07 22:43 -45.78923 -67.46805 209 ft 4 kts 157°
2026-05-07 22:44 -45.78912 -67.46825 208 ft 3 kts 87°
2026-05-07 22:44 -45.78913 -67.46863 195 ft 4 kts 88°
2026-05-07 22:44 -45.78913 -67.46874 195 ft 0 kts 88°
2026-05-07 22:46 -45.78913 -67.46868 195 ft 4 kts 88°
2026-05-07 22:46 -45.78906 -67.46815 200 ft 6 kts 61°
2026-05-07 22:47 -45.78864 -67.46801 205 ft 7 kts
2026-05-07 22:47 -45.78818 -67.46802 195 ft 7 kts 359°
2026-05-07 22:47 -45.78774 -67.46803 205 ft 6 kts
2026-05-07 22:47 -45.78750 -67.46740 195 ft 11 kts 76°
2026-05-07 22:48 -45.78735 -67.46627 206 ft 12 kts 78°
2026-05-07 22:48 -45.78718 -67.46509 195 ft 12 kts 79°
2026-05-07 22:48 -45.78703 -67.46393 195 ft 12 kts 80°
2026-05-07 22:48 -45.78687 -67.46260 195 ft 14 kts 80°
2026-05-07 22:49 -45.78669 -67.46120 195 ft 14 kts 77°
2026-05-07 22:49 -45.78646 -67.45973 203 ft 16 kts 77°
2026-05-07 22:49 -45.78627 -67.45816 195 ft 16 kts 81°
2026-05-07 22:49 -45.78610 -67.45664 207 ft 15 kts 81°
2026-05-07 22:50 -45.78593 -67.45519 195 ft 14 kts 77°
2026-05-07 22:50 -45.78572 -67.45381 195 ft 14 kts 77°
2026-05-07 22:50 -45.78551 -67.45251 195 ft 13 kts 77°
2026-05-07 22:50 -45.78536 -67.45123 204 ft 13 kts 80°
2026-05-07 22:51 -45.78521 -67.44998 208 ft 13 kts 80°
2026-05-07 22:51 -45.78490 -67.44877 208 ft 17 kts 38°
2026-05-07 22:51 -45.78371 -67.44825 199 ft 19 kts
2026-05-07 22:51 -45.78297 -67.44864 194 ft 2 kts 285°
2026-05-07 22:52 -45.78314 -67.44958 199 ft 35 kts 257°
2026-05-07 22:52 -45.78421 -67.45746 205 ft 123 kts 259°
2026-05-07 22:52 -45.78601 -67.47257 432 ft 174 kts 258°
2026-05-07 22:52 -45.78799 -67.49010 1525 ft 183 kts 257°
2026-05-07 22:53 -45.78938 -67.50855 2377 ft 194 kts 256°
2026-05-07 22:53 -45.78799 -67.52931 3039 ft 229 kts 285°
2026-05-07 22:53 -45.77729 -67.54829 3866 ft 271 kts 315°
2026-05-07 22:53 -45.75884 -67.56024 4337 ft 315 kts 347°
2026-05-07 22:54 -45.73719 -67.55800 5623 ft 314 kts 21°
2026-05-07 22:54 -45.71889 -67.54185 7087 ft 300 kts 44°
2026-05-07 22:54 -45.70286 -67.52318 8307 ft 303 kts 41°
2026-05-07 22:54 -45.68594 -67.50467 9315 ft 311 kts 40°
2026-05-07 22:55 -45.66832 -67.48613 10294 ft 318 kts 38°
2026-05-07 22:55 -45.64986 -67.46711 10856 ft 340 kts 37°
2026-05-07 22:55 -45.62972 -67.44666 11089 ft 370 kts 37°
2026-05-07 22:55 -45.60785 -67.42465 11291 ft 397 kts 37°
2026-05-07 22:56 -45.58497 -67.40180 12079 ft 402 kts 36°
2026-05-07 22:56 -45.56222 -67.37927 13328 ft 399 kts 36°
2026-05-07 22:56 -45.53939 -67.35671 14338 ft 399 kts 35°
2026-05-07 22:56 -45.51630 -67.33388 15124 ft 407 kts 35°
2026-05-07 22:57 -45.49310 -67.31106 15887 ft 413 kts 34°
2026-05-07 22:57 -45.46911 -67.28747 16470 ft 426 kts 35°
2026-05-07 22:57 -45.44442 -67.26316 17104 ft 436 kts 35°
2026-05-07 22:57 -45.41964 -67.23877 18250 ft 432 kts 34°
2026-05-07 22:58 -45.39481 -67.21434 18965 ft 438 kts 34°
2026-05-07 22:58 -45.36939 -67.18935 19391 ft 451 kts 35°
2026-05-07 22:58 -45.34327 -67.16370 19975 ft 457 kts 35°
2026-05-07 22:58 -45.31702 -67.13798 20694 ft 459 kts 35°
2026-05-07 22:59 -45.29045 -67.11197 21194 ft 468 kts 35°
2026-05-07 22:59 -45.26337 -67.08549 21701 ft 475 kts 35°
2026-05-07 22:59 -45.23601 -67.05877 22262 ft 480 kts 35°
2026-05-07 22:59 -45.20825 -67.03170 22847 ft 485 kts 36°
2026-05-07 23:00 -45.18071 -67.00487 23426 ft 489 kts 36°
2026-05-07 23:00 -45.15242 -66.97734 23820 ft 495 kts 36°
2026-05-07 23:00 -45.12382 -66.94956 24234 ft 500 kts 36°
2026-05-07 23:00 -45.09506 -66.92164 24731 ft 502 kts 35°
2026-05-07 23:01 -45.06624 -66.89370 25231 ft 504 kts 35°
2026-05-07 23:01 -45.03720 -66.86558 25673 ft 507 kts 35°
2026-05-07 23:01 -45.00795 -66.83730 26094 ft 510 kts 35°
2026-05-07 23:01 -44.97846 -66.80882 26508 ft 514 kts 35°
2026-05-07 23:02 -44.94883 -66.78025 26878 ft 517 kts 34°
2026-05-07 23:02 -44.91904 -66.75156 27295 ft 519 kts 34°
2026-05-07 23:02 -44.88912 -66.72278 27695 ft 521 kts 34°
2026-05-07 23:02 -44.85954 -66.69438 28159 ft 520 kts 34°
2026-05-07 23:03 -44.82964 -66.66566 28749 ft 519 kts 34°
2026-05-07 23:03 -44.79993 -66.63711 29363 ft 515 kts 34°
2026-05-07 23:03 -44.77041 -66.60871 29876 ft 515 kts 34°
2026-05-07 23:03 -44.74072 -66.58030 30298 ft 516 kts 34°
2026-05-07 23:04 -44.71106 -66.55200 30791 ft 513 kts 33°
2026-05-07 23:04 -44.68166 -66.52405 31507 ft 506 kts 34°
2026-05-07 23:04 -44.65258 -66.49648 32217 ft 501 kts 33°
2026-05-07 23:04 -44.62365 -66.46915 32710 ft 501 kts 33°
2026-05-07 23:05 -44.59465 -66.44186 32957 ft 499 kts 33°
2026-05-07 23:05 -44.53706 -66.38697 32952 ft 503 kts 33°
2026-05-07 23:06 -44.47884 -66.33173 32934 ft 506 kts 33°
2026-05-07 23:06 -44.42037 -66.27654 32920 ft 507 kts 33°
2026-05-07 23:07 -44.36223 -66.22181 32918 ft 505 kts 33°
2026-05-07 23:07 -44.30388 -66.16703 32906 ft 505 kts 33°
2026-05-07 23:08 -44.24545 -66.11230 32911 ft 505 kts 33°
2026-05-07 23:08 -44.18708 -66.05774 32892 ft 505 kts 33°
2026-05-07 23:09 -44.12865 -66.00325 32890 ft 505 kts 33°
2026-05-07 23:09 -44.07019 -65.94886 32892 ft 505 kts 33°
2026-05-07 23:10 -44.01204 -65.89487 32882 ft 505 kts 33°
2026-05-07 23:10 -43.95240 -65.84300 32867 ft 505 kts 29°
2026-05-07 23:11 -43.89137 -65.79438 32877 ft 505 kts 28°
2026-05-07 23:11 -43.83027 -65.74603 32872 ft 506 kts 29°
2026-05-07 23:12 -43.76932 -65.69726 32857 ft 506 kts 29°
2026-05-07 23:12 -43.70843 -65.64835 32861 ft 506 kts 29°
2026-05-07 23:13 -43.64780 -65.59977 32856 ft 506 kts 29°
2026-05-07 23:13 -43.58670 -65.55096 32849 ft 507 kts 29°
2026-05-07 23:14 -43.53589 -65.51047 32859 ft 507 kts 29°
2026-05-07 23:14 -43.47477 -65.46185 32858 ft 508 kts 29°
2026-05-07 23:15 -43.41360 -65.41330 32867 ft 507 kts 29°
2026-05-07 23:15 -43.35241 -65.36486 32879 ft 508 kts 29°
2026-05-07 23:16 -43.29140 -65.31665 32886 ft 509 kts 29°
2026-05-07 23:16 -43.22998 -65.26825 32886 ft 509 kts 29°
2026-05-07 23:17 -43.16821 -65.22042 32898 ft 509 kts 28°
2026-05-07 23:17 -43.10560 -65.17450 32884 ft 510 kts 27°
2026-05-07 23:18 -43.04285 -65.12889 32871 ft 511 kts 27°
2026-05-07 23:18 -42.98015 -65.08306 32858 ft 511 kts 27°
2026-05-07 23:19 -42.91788 -65.03746 32850 ft 510 kts 27°
2026-05-07 23:19 -42.85523 -64.99165 32843 ft 511 kts 27°
2026-05-07 23:20 -42.79250 -64.94588 32837 ft 512 kts 27°
2026-05-07 23:20 -42.72971 -64.90021 32818 ft 512 kts 27°
2026-05-07 23:21 -42.66691 -64.85465 32840 ft 511 kts 27°
2026-05-07 23:21 -42.60412 -64.80923 32823 ft 511 kts 27°
2026-05-07 23:22 -42.54130 -64.76383 32832 ft 511 kts 27°
2026-05-07 23:22 -42.47852 -64.71855 32832 ft 511 kts 27°
2026-05-07 23:23 -42.41562 -64.67331 32833 ft 512 kts 27°
2026-05-07 23:23 -42.35196 -64.63041 32767 ft 512 kts 20°
2026-05-07 23:23 -42.31847 -64.61534 32577 ft 515 kts 12°
2026-05-07 23:24 -42.28326 -64.60605 32289 ft 516 kts
2026-05-07 23:24 -42.24711 -64.60419 31962 ft 505 kts 353°
2026-05-07 23:24 -42.21325 -64.61041 31258 ft 494 kts 342°